Regional Weather Roundup
Issued by NWS

Home | Current Version | Previous Version | Graphics & Text | Print | Product List | Glossary On
Versions: 1 2 3 4 5 6 7 8 9 10 11 12 13 14 15 16 17 18 19 20 21 22 23 24 25 26 27 28 29 30 31 32 33 34 35 36 37 38 39 40 41 42 43 44 45 46 47 48 49 50
000
ASUS45 KPSR 281110
RWRAZ

ARIZONA HOURLY REGIONAL WEATHER ROUNDUP
NATIONAL WEATHER SERVICE PHOENIX AZ
400 AM MST TUE MAR 28 2017

NOTE: FAIR INDICATES FEW OR NO CLOUDS BELOW 12,000 FEET WITH NO
SIGNIFICANT WEATHER AND/OR OBSTRUCTIONS TO VISIBILITY.

AZZ001>003-036-281200-
NORTHWEST ARIZONA

CITY           SKY/WX    TMP DP  RH WIND       PRES   REMARKS
BULLHEAD CITY  CLEAR     63  28  27 N20G26    29.89F
KINGMAN        CLEAR     46  21  37 N12       29.94S
$$

AZZ004>008-015-016-018-281200-
NORTH CENTRAL ARIZONA

CITY           SKY/WX    TMP DP  RH WIND       PRES   REMARKS
GRAND CANYON   CLOUDY    35  29  78 N5        29.87F WCI  31
WILLIAMS       CLOUDY    32  30  93 N10       29.88S WCI  24
PRESCOTT       MOCLDY    37  34  89 NW12      29.88S WCI  29
FLAGSTAFF      PTCLDY    31  27  85 VRB5      29.85S WCI  26
PAYSON         CLEAR     36  34  93 N5        29.85S WCI  32
PAGE           CLOUDY    50  31  48 W8        29.83S
$$

AZZ009>014-017-281200-
NORTHEAST ARIZONA

CITY           SKY/WX    TMP DP  RH WIND       PRES   REMARKS
WINSLOW        MOCLDY    36  35  96 CALM      29.84R
SAINT JOHNS    MOCLDY    36  34  92 SE9       29.82F WCI  29
WINDOW ROCK    CLOUDY    36  31  82 CALM      29.84F
SHOW LOW       CLEAR     32  28  86 SE5       29.82F WCI  27
$$

AZZ023-281200-
GREATER PHOENIX AREA

CITY           SKY/WX    TMP DP  RH WIND       PRES   REMARKS
PHOENIX        MOCLDY    59  42  53 SW7       29.77S
BUCKEYE        CLEAR     57  34  41 W7        29.81S
LUKE AFB       CLEAR     55  40  55 NW8       29.78S
DEER VALLEY    CLEAR     53  37  54 NW6       29.78F
SCOTTSDALE     CLEAR     57  37  47 CALM      29.80S
MESA-GATEWAY   PTCLDY    55  36  47 W8        29.79S
$$

AZZ027-028-281200-
SOUTHWEST MARICOPA COUNTY AND PINAL COUNTY

CITY           SKY/WX    TMP DP  RH WIND       PRES   REMARKS
CASA GRANDE    NOT AVBL
GILA BEND      FAIR      58  34  39 SW7       29.80S
$$

AZZ503-504-507>509-281200-
SOUTHEAST ARIZONA

CITY           SKY/WX    TMP DP  RH WIND       PRES   REMARKS
TUCSON         LGT RAIN  51  44  77 NW15      29.89R
DAVIS-MONTHAN  LGT RAIN  50  45  81 NW15G25   29.88R
NOGALES        MOCLDY    51  32  48 NW9       29.87R
SIERRA VISTA   PTCLDY    52  34  50 W16       29.86F
DOUGLAS        MOCLDY    51  27  39 W5        29.85F
SAFFORD        PTCLDY    53  31  42 NW8       29.76F
$$

AZZ020-021-025-026-031-281200-
SOUTHWEST ARIZONA

CITY           SKY/WX    TMP DP  RH WIND       PRES   REMARKS
YUMA           PTCLDY    61  37  41 W5        29.87S
$$

CAZ031-033-041-043-047-048-061-281200-
SOUTHERN CALIFORNIA

CITY           SKY/WX    TMP DP  RH WIND       PRES   REMARKS
DOWNTOWN L.A.  CLEAR     58  49  72 CALM      29.99R
L.A. AIRPORT   CLEAR     59  43  55 N15G23    30.00R
SAN DIEGO      PTCLDY    57  50  77 E3        30.01S
BURBANK        CLEAR     60  33  36 NW10      30.00S
ONTARIO        CLEAR     48  40  73 CALM      29.98F
RIVERSIDE      CLEAR     63  25  23 NE13G28   29.96F
PALM SPRINGS   CLEAR     61  37  41 NW7G20    29.98S
EL CENTRO NAS  CLEAR     67  22  18 N23       29.93R
IMPERIAL       CLEAR     68  27  21 NW17G28   29.90S
BLYTHE         CLEAR     62  26  25 NW8       29.89S
NEEDLES        CLEAR     63  26  24 N8        29.92S
$$

NVZ020-UTZ003-281200-
SOUTHERN NEVADA-UTAH

CITY           SKY/WX    TMP DP  RH WIND       PRES   REMARKS
LAS VEGAS      PTCLDY    56  21  25 NW18G32   29.99S
SALT LAKE CITY MOCLDY    39  32  76 NW13      30.04R WCI  31
$$

NMZ009-TXZ055-281200-
NEW MEXICO-WEST TEXAS

CITY           SKY/WX    TMP DP  RH WIND       PRES   REMARKS
ALBUQUERQUE    CLOUDY    48  36  63 NW7       29.81F
EL PASO        MOCLDY    66  26  22 W17G26    29.75S
$$


........................KEY........................
SKY/WX - SKY CONDITION/WEATHER
TMP    - TEMPERATURE IN FAHRENHEIT
DP     - DEW POINT IN FAHRENHEIT
RH     - RELATIVE HUMIDITY IN PERCENT
WIND   - DIRECTION AND SPEED IN MILES PER HOUR (MPH)
VRB    - VARIABLE WIND DIRECTION
PRES   - MEAN SEA LEVEL PRESSURE IN INCHES OF MERCURY
         F - FALLING PRESSURE   R - RISING PRESSURE
         S - STEADY PRESSURE
VSB    - VISIBILITY IN MILES
HX     - HEAT INDEX IN FAHRENHEIT
WCI    - WIND CHILL INDEX IN FAHRENHEIT
TC     - TEMPERATURE IN CELSIUS WHICH IS ALSO KNOWN AS
         TEMPERATURE IN CENTIGRADE
AFB    - AIR FORCE BASE
         LUKE AFB IS LUKE AIR FORCE BASE
         DAVIS-MONTHAN IS DAVIS-MONTHAN AIR FORCE BASE
NAS    - NAVAL AIR STATION
         EL CENTRO NAS IS EL CENTRO NAVAL AIR STATION
N/A    - NOT AVAILABLE




USA.gov is the U.S. government's official web portal to all federal, state and local government web resources and services.